Tiempo cada hora Abramkovo

Hoy, 21 Octubre, Miércoles

Tiempo Temperatura Precipitaciones Viento Presión Humedad
00:00 -4°C° 0.1 mm 3 mps 749 mmHg 94%
01:00 -5°C° 0.1 mm 3 mps 749 mmHg 94%
02:00 -5°C° 0.1 mm 3 mps 750 mmHg 93%
03:00 -5°C° 0 mm 3 mps 750 mmHg 93%
04:00 -5°C° 0.1 mm 3 mps 751 mmHg 93%
05:00 -5°C° 0.1 mm 3 mps 751 mmHg 92%
06:00 -5°C° 0.1 mm 3 mps 751 mmHg 92%
07:00 -5°C° 0 mm 3 mps 751 mmHg 91%
08:00 -5°C° 0 mm 3 mps 752 mmHg 90%
09:00 -5°C° 0 mm 3 mps 752 mmHg 88%
10:00 -4°C° 0.1 mm 3 mps 752 mmHg 88%
11:00 -2°C° 0.1 mm 3 mps 753 mmHg 88%
12:00 -1°C° 0.1 mm 3 mps 753 mmHg 89%
13:00 -1°C° 0.1 mm 3 mps 753 mmHg 90%
14:00 -1°C° 0.1 mm 3 mps 754 mmHg 91%
15:00 0°C° 0.1 mm 3 mps 754 mmHg 92%
16:00 -1°C° 0 mm 3 mps 754 mmHg 92%
17:00 -1°C° 0 mm 3 mps 754 mmHg 92%
18:00 -1°C° 0 mm 3 mps 754 mmHg 93%
19:00 -2°C° 0 mm 3 mps 755 mmHg 93%
20:00 -2°C° 0 mm 3 mps 755 mmHg 94%
21:00 -3°C° 0 mm 2 mps 755 mmHg 95%
22:00 -3°C° 0 mm 2 mps 755 mmHg 95%
23:00 -4°C° 0 mm 3 mps 756 mmHg 95%

Mañana, 22 Octubre, Jueves

Tiempo Temperatura Precipitaciones Viento Presión Humedad
00:00 -5°C° 0 mm 3 mps 756 mmHg 95%
01:00 -4°C° 0 mm 2 mps 756 mmHg 95%
02:00 -5°C° 0 mm 2 mps 757 mmHg 95%
03:00 -5°C° 0 mm 2 mps 757 mmHg 95%
04:00 -5°C° 0.1 mm 2 mps 757 mmHg 96%
05:00 -5°C° 0.1 mm 2 mps 757 mmHg 96%
06:00 -4°C° 0.1 mm 2 mps 757 mmHg 96%
07:00 -2°C° 0 mm 1 mps 758 mmHg 95%
08:00 -2°C° 0 mm 1 mps 758 mmHg 94%
09:00 -1°C° 0 mm 1 mps 758 mmHg 93%
10:00 -1°C° 0 mm 1 mps 759 mmHg 91%
11:00 0°C° 0 mm 1 mps 759 mmHg 89%
12:00 -1°C° 0 mm 0 mps 759 mmHg 87%
13:00 -1°C° 0 mm 0 mps 759 mmHg 87%
14:00 -1°C° 0 mm 0 mps 759 mmHg 87%
15:00 -1°C° 0 mm 0 mps 759 mmHg 87%
16:00 -1°C° 0 mm 0 mps 759 mmHg 87%
17:00 -1°C° 0 mm 1 mps 759 mmHg 88%
18:00 -1°C° 0 mm 1 mps 758 mmHg 89%
19:00 -1°C° 0 mm 1 mps 758 mmHg 90%
20:00 -3°C° 0 mm 2 mps 758 mmHg 90%
21:00 -4°C° 0 mm 2 mps 758 mmHg 90%
22:00 -4°C° 0 mm 2 mps 758 mmHg 91%
23:00 -4°C° 0 mm 2 mps 757 mmHg 93%

Pasado mañana, 23 Octubre, Viernes

Tiempo Temperatura Precipitaciones Viento Presión Humedad
00:00 -5°C° 0 mm 2 mps 757 mmHg 94%
01:00 -6°C° 0 mm 3 mps 757 mmHg 94%
02:00 -6°C° 0 mm 3 mps 756 mmHg 94%
03:00 -6°C° 0 mm 3 mps 756 mmHg 95%
04:00 -6°C° 0 mm 3 mps 755 mmHg 94%
05:00 -7°C° 0 mm 4 mps 755 mmHg 93%
06:00 -7°C° 0 mm 4 mps 754 mmHg 92%
07:00 -5°C° 0 mm 4 mps 754 mmHg 90%
08:00 -5°C° 0 mm 4 mps 753 mmHg 88%
09:00 -5°C° 0 mm 5 mps 753 mmHg 85%
10:00 -5°C° 0 mm 5 mps 752 mmHg 84%
11:00 -4°C° 0 mm 5 mps 752 mmHg 83%
12:00 -4°C° 0 mm 5 mps 751 mmHg 81%
13:00 -4°C° 0.2 mm 6 mps 751 mmHg 85%
14:00 -4°C° 0.2 mm 6 mps 750 mmHg 89%
15:00 -4°C° 0.2 mm 6 mps 749 mmHg 93%
16:00 -4°C° 0.5 mm 6 mps 749 mmHg 94%
17:00 -4°C° 0.5 mm 6 mps 748 mmHg 94%
18:00 -4°C° 0.5 mm 6 mps 747 mmHg 95%
19:00 -4°C° 0.6 mm 5 mps 746 mmHg 95%
20:00 -2°C° 0.6 mm 5 mps 746 mmHg 95%
21:00 -2°C° 0.6 mm 5 mps 745 mmHg 95%
22:00 -2°C° 0.6 mm 5 mps 745 mmHg 95%
23:00 -2°C° 0.6 mm 5 mps 744 mmHg 95%

24 Octubre, Sábado

Tiempo Temperatura Precipitaciones Viento Presión Humedad
00:00 -2°C° 0.6 mm 5 mps 743 mmHg 95%
01:00 -1°C° 0.6 mm 4 mps 743 mmHg 95%
02:00 -1°C° 0.6 mm 4 mps 742 mmHg 96%
03:00 -1°C° 0.6 mm 4 mps 742 mmHg 96%
04:00 +1°C° 0.5 mm 3 mps 742 mmHg 97%
05:00 +1°C° 0.5 mm 3 mps 741 mmHg 98%
06:00 +1°C° 0.5 mm 3 mps 741 mmHg 98%
07:00 +2°C° 0.1 mm 2 mps 741 mmHg 99%
08:00 +2°C° 0.1 mm 2 mps 741 mmHg 99%
09:00 +3°C° 0.1 mm 2 mps 741 mmHg 99%
10:00 +4°C° 0.1 mm 1 mps 741 mmHg 99%
11:00 +4°C° 0.1 mm 1 mps 742 mmHg 99%
12:00 +5°C° 0.1 mm 1 mps 742 mmHg 99%
13:00 +5°C° 0.1 mm 1 mps 742 mmHg 99%
14:00 +5°C° 0.1 mm 1 mps 743 mmHg 99%
15:00 +5°C° 0.1 mm 1 mps 743 mmHg 99%
16:00 +5°C° 0 mm 1 mps 744 mmHg 99%
17:00 +4°C° 0 mm 2 mps 744 mmHg 99%
18:00 +4°C° 0 mm 2 mps 745 mmHg 99%
19:00 +3°C° 0.1 mm 2 mps 745 mmHg 99%
20:00 +3°C° 0.1 mm 2 mps 746 mmHg 99%
21:00 +3°C° 0.1 mm 2 mps 746 mmHg 99%
22:00 +3°C° 0.1 mm 2 mps 747 mmHg 98%
23:00 +3°C° 0.1 mm 2 mps 748 mmHg 98%

25 Octubre, Domingo

Tiempo Temperatura Precipitaciones Viento Presión Humedad
00:00 +3°C° 0.1 mm 2 mps 748 mmHg 98%
01:00 +2°C° 0.1 mm 2 mps 749 mmHg 97%
02:00 +2°C° 0.1 mm 2 mps 749 mmHg 97%
03:00 +1°C° 0.1 mm 2 mps 750 mmHg 97%
04:00 +1°C° 0 mm 2 mps 750 mmHg 97%
05:00 -1°C° 0 mm 2 mps 751 mmHg 97%
06:00 +1°C° 0 mm 1 mps 751 mmHg 97%
07:00 -1°C° 0 mm 2 mps 751 mmHg 96%
08:00 -2°C° 0 mm 2 mps 752 mmHg 94%
09:00 -2°C° 0 mm 2 mps 752 mmHg 93%
10:00 -1°C° 0 mm 2 mps 753 mmHg 92%
11:00 +1°C° 0 mm 1 mps 753 mmHg 90%
12:00 +1°C° 0 mm 1 mps 753 mmHg 89%
13:00 +1°C° 0 mm 1 mps 753 mmHg 90%
14:00 +1°C° 0 mm 1 mps 754 mmHg 91%
15:00 +1°C° 0 mm 1 mps 754 mmHg 92%
16:00 +1°C° 0 mm 1 mps 754 mmHg 93%
17:00 0°C° 0 mm 1 mps 755 mmHg 94%
18:00 -3°C° 0 mm 2 mps 755 mmHg 94%
19:00 -1°C° 0 mm 1 mps 755 mmHg 95%
20:00 -1°C° 0 mm 1 mps 755 mmHg 95%
21:00 -1°C° 0 mm 1 mps 755 mmHg 95%
22:00 -1°C° 0 mm 1 mps 755 mmHg 96%
23:00 -1°C° 0 mm 1 mps 756 mmHg 96%

26 Octubre, Lunes

Tiempo Temperatura Precipitaciones Viento Presión Humedad
00:00 -1°C° 0 mm 1 mps 756 mmHg 96%
01:00 0°C° 0 mm 1 mps 756 mmHg 96%
02:00 0°C° 0 mm 1 mps 756 mmHg 96%
03:00 +1°C° 0 mm 1 mps 756 mmHg 97%
04:00 +1°C° 0 mm 1 mps 756 mmHg 97%
05:00 +2°C° 0 mm 1 mps 756 mmHg 97%
06:00 +3°C° 0 mm 1 mps 757 mmHg 98%
07:00 +2°C° 0 mm 2 mps 757 mmHg 97%
08:00 +2°C° 0 mm 2 mps 757 mmHg 97%
09:00 +3°C° 0 mm 2 mps 757 mmHg 97%
10:00 +3°C° 0.1 mm 2 mps 757 mmHg 97%
11:00 +4°C° 0.1 mm 2 mps 757 mmHg 96%
12:00 +4°C° 0.1 mm 2 mps 757 mmHg 96%
13:00 +4°C° 0 mm 2 mps 757 mmHg 96%
14:00 +4°C° 0 mm 2 mps 757 mmHg 96%
15:00 +4°C° 0 mm 2 mps 757 mmHg 96%
16:00 +4°C° 0 mm 2 mps 758 mmHg 96%
17:00 +4°C° 0 mm 2 mps 758 mmHg 96%
18:00 +4°C° 0 mm 2 mps 758 mmHg 96%
19:00 +4°C° 0 mm 2 mps 758 mmHg 96%
20:00 +4°C° 0 mm 2 mps 758 mmHg 96%
21:00 +4°C° 0 mm 2 mps 758 mmHg 96%
22:00 +3°C° 0 mm 3 mps 759 mmHg 96%
23:00 +3°C° 0 mm 3 mps 759 mmHg 96%

27 Octubre, Martes

Tiempo Temperatura Precipitaciones Viento Presión Humedad
00:00 +3°C° 0 mm 3 mps 759 mmHg 96%
01:00 +3°C° 0 mm 3 mps 759 mmHg 96%
02:00 +3°C° 0 mm 3 mps 759 mmHg 96%
03:00 +4°C° 0 mm 3 mps 759 mmHg 96%
04:00 +4°C° 0 mm 3 mps 759 mmHg 96%
05:00 +4°C° 0 mm 3 mps 759 mmHg 96%
06:00 +5°C° 0 mm 2 mps 760 mmHg 96%
07:00 +5°C° 0 mm 3 mps 760 mmHg 96%
08:00 +5°C° 0 mm 3 mps 760 mmHg 97%
09:00 +5°C° 0 mm 3 mps 760 mmHg 97%
10:00 +6°C° 0 mm 2 mps 761 mmHg 97%
11:00 +6°C° 0 mm 2 mps 761 mmHg 96%
12:00 +6°C° 0 mm 2 mps 762 mmHg 96%
13:00 +6°C° 0 mm 2 mps 762 mmHg 96%
14:00 +6°C° 0 mm 2 mps 762 mmHg 97%
15:00 +6°C° 0 mm 2 mps 762 mmHg 97%
16:00 +6°C° 0 mm 2 mps 762 mmHg 97%
17:00 +6°C° 0 mm 2 mps 762 mmHg 97%
18:00 +6°C° 0 mm 2 mps 762 mmHg 96%
19:00 +6°C° 0 mm 2 mps 762 mmHg 96%
20:00 +6°C° 0 mm 2 mps 762 mmHg 96%
21:00 +6°C° 0 mm 2 mps 762 mmHg 96%
22:00 +5°C° 0 mm 2 mps 762 mmHg 95%
23:00 +5°C° 0 mm 2 mps 762 mmHg 95%
Mostrar más

Necesitamos Su Consentimiento

Meteoprog y nuestros Proveedores de Servicios pueden almacenar y acceder a sus datos personales como cookies, identificadores de dispositivo u otras tecnologías similares de su dispositivo y procesar dichos datos para personalizar contenido y anuncios, además de ofrecer funciones de redes sociales y analizar el tráfico.

  • Almacenar y/o acceder a información en su dispositivo

    Se puede almacenar o acceder a cookies, identificadores de dispositivo u otra información de su dispositivo para los fines anteriormente indicados.

  • Anuncios y contenido personalizados, medición de anuncios y contenido, percepciones del público, y desarrollo de productos

    Los anuncios y el contenido pueden personalizarse en base a su perfil. Se pueden añadir más datos para personalizar mejor los anuncios y contenidos. Se puede medir el rendimiento de los anuncios y contenidos. Se puede obtener la percepción sobre el público que ha visto los anuncios y contenidos. Dichos datos pueden usarse para desarrollar o mejorar la experiencia del usuario, sistemas y software.

Al hacer clic en ‘Estoy De Acuerdo’ usted permitirá el uso de las cookies, identificadores de dispositivo, balizas web u otras tecnologías similares indicadas. Su configuración puede cambiarse desde el navegador de su dispositivo.

Para ciertos fines, los intereses legítimos pueden ser considerados por encima del consentimiento. Puede leer más sobre ello en nuestra Política de Privacidad y Cookies.